Time,TemperatureF,DewpointF,PressureIn,WindDirection,WindDirectionDegrees,WindSpeedMPH,WindSpeedGustMPH,Humidity,HourlyPrecipIn,Conditions,Clouds,dailyrainin,SoftwareType,DateUTC
2013-03-15 00:00:00,34.7,19.0,30.05,WNW,301,1.0,5.0,53,0.00,,,0.00,weatherlink.com 1.10,2013-03-15 04:00:00,
2013-03-15 00:15:00,34.2,19.0,30.05,WNW,286,3.0,5.0,54,0.00,,,0.00,weatherlink.com 1.10,2013-03-15 04:15:00,
2013-03-15 00:30:00,34.1,19.0,30.05,NW,304,3.0,5.0,54,0.00,,,0.00,weatherlink.com 1.10,2013-03-15 04:30:00,
2013-03-15 00:45:00,34.0,19.0,30.05,NW,304,1.0,6.0,54,0.00,,,0.00,weatherlink.com 1.10,2013-03-15 04:45:00,
2013-03-15 01:00:00,33.7,19.0,30.05,WNW,283,2.0,5.0,55,0.00,,,0.00,weatherlink.com 1.10,2013-03-15 05:00:00,
2013-03-15 01:15:00,33.8,19.0,30.05,West,275,5.0,7.0,55,0.00,,,0.00,weatherlink.com 1.10,2013-03-15 05:15:00,
2013-03-15 01:30:00,34.0,19.0,30.04,WNW,302,4.0,7.0,55,0.00,,,0.00,weatherlink.com 1.10,2013-03-15 05:30:00,
2013-03-15 01:45:00,33.9,19.0,30.03,WNW,300,4.0,9.0,55,0.00,,,0.00,weatherlink.com 1.10,2013-03-15 05:45:00,
2013-03-15 02:00:00,34.2,20.0,30.03,WNW,286,3.0,9.0,56,0.00,,,0.00,weatherlink.com 1.10,2013-03-15 06:00:00,
2013-03-15 02:15:00,34.0,20.0,30.03,WNW,298,2.0,7.0,56,0.00,,,0.00,weatherlink.com 1.10,2013-03-15 06:15:00,
2013-03-15 02:30:00,33.7,19.0,30.03,WNW,303,3.0,5.0,56,0.00,,,0.00,weatherlink.com 1.10,2013-03-15 06:30:00,
2013-03-15 02:46:00,33.1,20.0,30.03,NW,305,2.0,4.0,58,0.00,,,0.00,weatherlink.com 1.10,2013-03-15 06:46:00,
2013-03-15 03:00:00,32.6,20.0,30.03,NW,315,4.0,4.0,59,0.00,,,0.00,weatherlink.com 1.10,2013-03-15 07:00:00,
2013-03-15 03:15:00,32.5,19.0,30.02,WNW,301,2.0,5.0,59,0.00,,,0.00,weatherlink.com 1.10,2013-03-15 07:15:00,
2013-03-15 03:30:00,32.8,20.0,30.02,WNW,288,5.0,9.0,59,0.00,,,0.00,weatherlink.com 1.10,2013-03-15 07:30:00,
2013-03-15 03:45:00,33.3,20.0,30.02,WNW,285,6.0,10.0,59,0.00,,,0.00,weatherlink.com 1.10,2013-03-15 07:45:00,
2013-03-15 04:00:00,33.7,20.0,30.01,West,281,4.0,7.0,58,0.00,,,0.00,weatherlink.com 1.10,2013-03-15 08:00:00,
2013-03-15 04:15:00,33.3,20.0,30.01,WNW,300,3.0,5.0,58,0.00,,,0.00,weatherlink.com 1.10,2013-03-15 08:15:00,
2013-03-15 04:31:00,32.8,20.0,30.00,WNW,302,2.0,4.0,59,0.00,,,0.00,weatherlink.com 1.10,2013-03-15 08:31:00,
2013-03-15 04:46:00,32.5,20.0,30.01,WNW,296,0.0,3.0,60,0.00,,,0.00,weatherlink.com 1.10,2013-03-15 08:46:00,
2013-03-15 05:01:00,31.5,20.0,30.00,WNW,296,0.0,1.0,62,0.00,,,0.00,weatherlink.com 1.10,2013-03-15 09:01:00,
2013-03-15 05:16:00,29.9,19.0,30.00,WNW,296,0.0,0.0,65,0.00,,,0.00,weatherlink.com 1.10,2013-03-15 09:16:00,
2013-03-15 05:46:00,27.8,20.0,30.00,WNW,296,0.0,2.0,71,0.00,,,0.00,weatherlink.com 1.10,2013-03-15 09:46:00,
2013-03-15 06:01:00,26.9,19.0,30.00,WNW,296,0.0,2.0,72,0.00,,,0.00,weatherlink.com 1.10,2013-03-15 10:01:00,
2013-03-15 06:16:00,26.4,19.0,30.00,WNW,296,0.0,2.0,73,0.00,,,0.00,weatherlink.com 1.10,2013-03-15 10:16:00,
2013-03-15 06:31:00,26.4,19.0,30.00,WNW,296,0.0,1.0,74,0.00,,,0.00,weatherlink.com 1.10,2013-03-15 10:31:00,
2013-03-15 06:46:00,26.5,19.0,30.00,WNW,296,0.0,0.0,74,0.00,,,0.00,weatherlink.com 1.10,2013-03-15 10:46:00,
2013-03-15 07:16:00,26.0,19.0,29.99,WNW,296,0.0,1.0,75,0.00,,,0.00,weatherlink.com 1.10,2013-03-15 11:16:00,
2013-03-15 08:01:00,26.8,20.0,29.99,WNW,296,0.0,0.0,76,0.00,,,0.00,weatherlink.com 1.10,2013-03-15 12:01:00,
2013-03-15 08:16:00,28.3,21.0,29.99,WNW,300,0.0,2.0,73,0.00,,,0.00,weatherlink.com 1.10,2013-03-15 12:16:00,
2013-03-15 08:31:00,35.4,21.0,29.98,WNW,300,2.0,6.0,57,0.00,,,0.00,weatherlink.com 1.10,2013-03-15 12:31:00,
2013-03-15 08:47:00,37.9,21.0,29.98,NNW,331,4.0,6.0,50,0.00,,,0.00,weatherlink.com 1.10,2013-03-15 12:47:00,
2013-03-15 09:01:00,38.9,20.0,29.97,NW,321,3.0,8.0,47,0.00,,,0.00,weatherlink.com 1.10,2013-03-15 13:01:00,
2013-03-15 09:17:00,41.2,21.0,29.96,NW,319,1.0,9.0,45,0.00,,,0.00,weatherlink.com 1.10,2013-03-15 13:17:00,
2013-03-15 09:32:00,43.5,22.0,29.96,WNW,293,2.0,5.0,42,0.00,,,0.00,weatherlink.com 1.10,2013-03-15 13:32:00,
2013-03-15 09:47:00,44.7,20.0,29.95,SSE,161,2.0,7.0,38,0.00,,,0.00,weatherlink.com 1.10,2013-03-15 13:47:00,
2013-03-15 10:02:00,44.5,20.0,29.94,WNW,296,4.0,12.0,38,0.00,,,0.00,weatherlink.com 1.10,2013-03-15 14:02:00,
2013-03-15 10:17:00,43.1,20.0,29.93,WNW,301,8.0,10.0,40,0.00,,,0.00,weatherlink.com 1.10,2013-03-15 14:17:00,
2013-03-15 10:32:00,43.3,20.0,29.93,WNW,303,8.0,8.0,40,0.00,,,0.00,weatherlink.com 1.10,2013-03-15 14:32:00,
2013-03-15 10:47:00,44.5,21.0,29.92,WNW,290,6.0,10.0,39,0.00,,,0.00,weatherlink.com 1.10,2013-03-15 14:47:00,
2013-03-15 11:02:00,44.8,21.0,29.92,SSE,151,2.0,8.0,39,0.00,,,0.00,weatherlink.com 1.10,2013-03-15 15:02:00,
2013-03-15 11:17:00,45.1,21.0,29.91,NE,34,0.0,9.0,38,0.00,,,0.00,weatherlink.com 1.10,2013-03-15 15:17:00,
2013-03-15 11:32:00,48.6,23.0,29.90,NNW,344,2.0,9.0,37,0.00,,,0.00,weatherlink.com 1.10,2013-03-15 15:32:00,
2013-03-15 11:47:00,50.5,24.0,29.88,NW,317,1.0,5.0,36,0.00,,,0.00,weatherlink.com 1.10,2013-03-15 15:47:00,
2013-03-15 12:03:00,50.9,23.0,29.87,North,5,2.0,12.0,33,0.00,,,0.00,weatherlink.com 1.10,2013-03-15 16:03:00,
2013-03-15 12:18:00,51.4,23.0,29.87,NW,309,7.0,15.0,33,0.00,,,0.00,weatherlink.com 1.10,2013-03-15 16:18:00,
2013-03-15 12:32:00,51.2,24.0,29.87,NW,310,7.0,14.0,35,0.00,,,0.00,weatherlink.com 1.10,2013-03-15 16:32:00,
2013-03-15 12:47:00,52.1,24.0,29.86,South,186,3.0,14.0,34,0.00,,,0.00,weatherlink.com 1.10,2013-03-15 16:47:00,
2013-03-15 13:02:00,52.8,24.0,29.85,WSW,249,2.0,10.0,33,0.00,,,0.00,weatherlink.com 1.10,2013-03-15 17:02:00,
2013-03-15 13:17:00,53.5,25.0,29.85,East,98,1.0,8.0,33,0.00,,,0.00,weatherlink.com 1.10,2013-03-15 17:17:00,
2013-03-15 13:32:00,51.4,23.0,29.84,NW,317,1.0,6.0,33,0.00,,,0.00,weatherlink.com 1.10,2013-03-15 17:32:00,
2013-03-15 13:47:00,50.9,24.0,29.83,ENE,68,1.0,7.0,35,0.00,,,0.00,weatherlink.com 1.10,2013-03-15 17:47:00,
2013-03-15 14:03:00,50.8,25.0,29.81,WNW,302,3.0,5.0,36,0.00,,,0.00,weatherlink.com 1.10,2013-03-15 18:03:00,
2013-03-15 14:18:00,52.3,29.0,29.80,North,355,0.0,8.0,41,0.00,,,0.00,weatherlink.com 1.10,2013-03-15 18:18:00,
2013-03-15 14:33:00,54.1,30.0,29.79,NW,319,6.0,23.0,40,0.00,,,0.00,weatherlink.com 1.10,2013-03-15 18:33:00,
2013-03-15 14:48:00,54.0,31.0,29.78,WNW,294,5.0,11.0,42,0.00,,,0.00,weatherlink.com 1.10,2013-03-15 18:48:00,
2013-03-15 15:03:00,54.9,32.0,29.77,WNW,302,9.0,17.0,42,0.00,,,0.00,weatherlink.com 1.10,2013-03-15 19:03:00,
2013-03-15 15:33:00,55.4,31.0,29.76,WNW,288,5.0,9.0,40,0.00,,,0.00,weatherlink.com 1.10,2013-03-15 19:33:00,
2013-03-15 15:48:00,55.2,32.0,29.75,NNW,338,0.0,11.0,41,0.00,,,0.00,weatherlink.com 1.10,2013-03-15 19:48:00,
2013-03-15 16:03:00,55.8,33.0,29.74,WNW,288,6.0,9.0,42,0.00,,,0.00,weatherlink.com 1.10,2013-03-15 20:03:00,
2013-03-15 16:18:00,56.4,33.0,29.74,NW,308,4.0,11.0,42,0.00,,,0.00,weatherlink.com 1.10,2013-03-15 20:18:00,
2013-03-15 16:33:00,56.5,33.0,29.73,NE,41,3.0,12.0,42,0.00,,,0.00,weatherlink.com 1.10,2013-03-15 20:33:00,
2013-03-15 16:48:00,56.4,34.0,29.73,NW,309,4.0,15.0,43,0.00,,,0.00,weatherlink.com 1.10,2013-03-15 20:48:00,
2013-03-15 17:03:00,56.4,34.0,29.73,WNW,297,12.0,12.0,43,0.00,,,0.00,weatherlink.com 1.10,2013-03-15 21:03:00,
2013-03-15 17:18:00,56.2,34.0,29.72,WNW,294,8.0,10.0,44,0.00,,,0.00,weatherlink.com 1.10,2013-03-15 21:18:00,
2013-03-15 17:33:00,56.3,34.0,29.72,WNW,297,6.0,14.0,43,0.00,,,0.00,weatherlink.com 1.10,2013-03-15 21:33:00,
2013-03-15 17:48:00,56.1,34.0,29.71,WNW,288,6.0,11.0,43,0.00,,,0.00,weatherlink.com 1.10,2013-03-15 21:48:00,
2013-03-15 18:04:00,55.9,33.0,29.72,NW,308,4.0,14.0,43,0.00,,,0.00,weatherlink.com 1.10,2013-03-15 22:04:00,
2013-03-15 18:18:00,55.7,33.0,29.72,NW,308,5.0,19.0,42,0.00,,,0.00,weatherlink.com 1.10,2013-03-15 22:18:00,
2013-03-15 18:33:00,55.5,33.0,29.72,WNW,300,4.0,11.0,43,0.00,,,0.00,weatherlink.com 1.10,2013-03-15 22:33:00,
2013-03-15 18:48:00,55.1,33.0,29.73,WNW,292,3.0,9.0,43,0.00,,,0.00,weatherlink.com 1.10,2013-03-15 22:48:00,
2013-03-15 19:03:00,54.4,32.0,29.73,WNW,283,4.0,10.0,43,0.00,,,0.00,weatherlink.com 1.10,2013-03-15 23:03:00,
2013-03-15 19:18:00,53.9,32.0,29.73,WNW,285,2.0,6.0,44,0.00,,,0.00,weatherlink.com 1.10,2013-03-15 23:18:00,
2013-03-15 19:33:00,53.4,32.0,29.73,WNW,292,8.0,8.0,45,0.00,,,0.00,weatherlink.com 1.10,2013-03-15 23:33:00,
2013-03-15 19:48:00,53.2,32.0,29.73,WNW,292,3.0,7.0,45,0.00,,,0.00,weatherlink.com 1.10,2013-03-15 23:48:00,
2013-03-15 20:03:00,52.7,32.0,29.74,WNW,300,2.0,7.0,46,0.00,,,0.00,weatherlink.com 1.10,2013-03-16 00:03:00,
2013-03-15 20:18:00,52.3,32.0,29.74,NW,307,5.0,6.0,47,0.00,,,0.00,weatherlink.com 1.10,2013-03-16 00:18:00,
2013-03-15 20:34:00,52.1,32.0,29.76,NW,304,3.0,10.0,47,0.00,,,0.00,weatherlink.com 1.10,2013-03-16 00:34:00,
2013-03-15 20:48:00,51.7,32.0,29.76,NW,310,2.0,6.0,48,0.00,,,0.00,weatherlink.com 1.10,2013-03-16 00:48:00,
2013-03-15 21:03:00,51.0,32.0,29.76,WNW,298,0.0,6.0,48,0.00,,,0.00,weatherlink.com 1.10,2013-03-16 01:03:00,
2013-03-15 21:18:00,51.1,32.0,29.76,WNW,286,3.0,5.0,48,0.00,,,0.00,weatherlink.com 1.10,2013-03-16 01:18:00,
2013-03-15 21:33:00,50.4,32.0,29.75,WNW,303,1.0,4.0,49,0.00,,,0.00,weatherlink.com 1.10,2013-03-16 01:33:00,
2013-03-15 21:48:00,49.6,32.0,29.75,WNW,296,1.0,2.0,51,0.00,,,0.00,weatherlink.com 1.10,2013-03-16 01:48:00,
2013-03-15 22:03:00,48.9,32.0,29.75,WNW,301,0.0,2.0,52,0.00,,,0.00,weatherlink.com 1.10,2013-03-16 02:03:00,
2013-03-15 22:18:00,48.1,32.0,29.75,WNW,302,1.0,3.0,54,0.00,,,0.00,weatherlink.com 1.10,2013-03-16 02:18:00,
2013-03-15 22:33:00,46.9,32.0,29.75,WNW,302,1.0,3.0,56,0.00,,,0.00,weatherlink.com 1.10,2013-03-16 02:33:00,
2013-03-15 22:48:00,45.8,32.0,29.75,WNW,302,1.0,3.0,59,0.00,,,0.00,weatherlink.com 1.10,2013-03-16 02:48:00,
2013-03-15 23:03:00,45.5,32.0,29.75,WNW,302,3.0,3.0,59,0.00,,,0.00,weatherlink.com 1.10,2013-03-16 03:03:00,
2013-03-15 23:18:00,45.5,32.0,29.74,WNW,302,2.0,3.0,60,0.00,,,0.00,weatherlink.com 1.10,2013-03-16 03:18:00,
2013-03-15 23:33:00,46.1,32.0,29.74,WNW,302,1.0,4.0,59,0.00,,,0.00,weatherlink.com 1.10,2013-03-16 03:33:00,
2013-03-15 23:48:00,46.3,32.0,29.74,WNW,297,2.0,3.0,59,0.00,,,0.00,weatherlink.com 1.10,2013-03-16 03:48:00,